Location: Kaarina
(60.4167°N, 22.4167°E)
Time: 20:42:16
(UTC+03:00)

Cosmos 405 - Pass Details

Date: 24 August 2019
Orbit: 452 x 467 km, 81.3° (Epoch: 13 October)

Event Time Altitude Azimuth Distance (km) Brightness Sun altitude
Rises 22:34:45 0° 345° (NNW) 2,528 7.9 -10.4°
Reaches altitude 10° 22:36:54 10° 350° (N) 1,645 6.7 -10.6°
Maximum altitude 22:40:26 52° 68° (ENE) 595 3.3 -10.9°
Enters shadow 22:42:57 17° 141° (SE) 1,247 4.5 -11.1°
